www.pogodaiklimat.ru

Погода и климат >> Архив погоды >> Норвегия >> Бё


ПОГОДА в Бё

  • Прогноз погоды в Бё
  • Монитор погоды в Бё

АРХИВ ПОГОДЫ в Бё

Время (UTC), дата Ветер
(напр.,м/с)
 
Видим.   Явления Облачность Т
(С)
Тd
(С)
f
(%)
Тe
(С)
Тes
(С)
Комфортность P
(гПа)
Po
(гПа)
Тmin
(С)
Tmax
(С)
R
(мм)
R24
(мм)
S
(см)
07 12.08 В 5-6
{7}
н/о н/о +18.6 +11.9 65 +19 +19 1001.2 1000.2
08 12.08 В 5-7
{8}
н/о н/о +19.9 +12.4 62 +21 +21 комфорт 1001.3 1000.4
09 12.08 В 4-5
{7}
н/о н/о +20.9 +12.3 58 +23 +23 комфорт 1001.4 1000.4
10 12.08 В 4-5
{5}
н/о н/о +20.2 +12.2 60 +22 +22 комфорт 1001.4 1000.5
11 12.08 З 2-3
{5}
н/о н/о +18.3 +13.4 73 +19 +19 1001.5 1000.6
12 12.08 СЗ 3-3
{8}
н/о н/о +18.7 +13.1 70 +20 +20 1001.5 1000.6
13 12.08 СЗ 2-2
{4}
н/о н/о +19.8 +14.2 70 +22 +22 комфорт 1001.2 1000.3
14 12.08 СЗ 2-3
{3}
н/о н/о +19.4 +13.6 69 +21 +21 комфорт 1001.0 1000.1
15 12.08 СЗ 2-2
{3}
н/о н/о +18.6 +13.7 73 +20 +20 1001.0 1000.0
16 12.08 З 1-2
{3}
н/о н/о +17.2 +12.9 76 +18 +18 1001.0 1000.0
17 12.08 Ю 1-2
{2}
н/о н/о +17.6 +13.1 75 +19 +19 1001.0 1000.1
18 12.08 В 2-4
{4}
н/о н/о +18.1 +13.2 73 +19 +19 1001.1 1000.1 +17.1 +21.3
19 12.08 В 4-6
{6}
н/о н/о +18.5 +12.5 68 +19 +19 1001.2 1000.2
20 12.08 С 1-2
{6}
н/о н/о +15.6 +12.4 81 +16 +16 1001.3 1000.4
21 12.08 З 1-2
{6}
н/о н/о +14.8 +12.0 83 +15 +15 1001.7 1000.7
22 12.08 штиль 0-1
{3}
н/о н/о +14.1 +12.2 88 +14 +14 1002.0 1001.0
23 12.08 ЮЗ 1-2
{3}
н/о н/о +13.6 +12.3 92 +14 +14 1001.8 1000.9
00 13.08 штиль 0-2
{6}
н/о н/о +13.3 +11.7 90 +13 +13 1001.8 1000.8
01 13.08 З 2-2
{4}
н/о н/о +12.8 +11.9 94 +12 +12 1001.9 1001.0
02 13.08 СЗ 2-4
{4}
н/о н/о +12.5 +11.1 91 +12 +12 1001.7 1000.8
03 13.08 ЮЗ 1-3
{3}
н/о н/о +12.7 +11.4 92 +13 +13 1001.8 1000.9
04 13.08 З 2-3
{4}
н/о н/о +13.1 +11.7 91 +12 +12 1001.7 1000.8
05 13.08 ЮЗ 2-3
{3}
н/о н/о +13.7 +11.8 88 +13 +13 1001.8 1000.8
06 13.08 З 2-2
{4}
н/о н/о +14.2 +11.7 85 +14 +14 1001.8 1000.9 +11.9 +19.1
07 13.08 З 2-3
{3}
н/о н/о +14.9 +12.0 83 +15 +15 1001.9 1000.9
08 13.08 З 2-3
{4}
н/о н/о +16.0 +12.8 81 +16 +16 1001.7 1000.8
09 13.08 З 2-3
{4}
н/о н/о +16.3 +12.5 78 +16 +16 1001.7 1000.8
10 13.08 В 6-7
{7}
н/о н/о +18.3 +12.5 69 +18 +18 1001.4 1000.5
11 13.08 В 5-7
{8}
н/о н/о +19.3 +13.0 67 +20 +20 1001.3 1000.4
12 13.08 СЗ 3-5
{8}
н/о н/о +17.9 +13.0 73 +18 +18 1001.2 1000.3
13 13.08 СВ 2-4
{6}
н/о н/о +20.3 +13.5 65 +23 +23 комфорт 1001.0 1000.1
14 13.08 В 4-5
{5}
н/о н/о +20.6 +12.8 61 +23 +23 комфорт 1000.8 999.9
15 13.08 В 3-5
{5}
н/о н/о +20.7 +13.4 63 +24 +24 комфорт 1000.5 999.5
16 13.08 ЮЗ 2-3
{4}
н/о н/о +20.1 +13.1 64 +23 +23 комфорт 1000.4 999.5
17 13.08 СВ 2-3
{4}
н/о н/о +18.7 +12.2 66 +20 +20 1000.5 999.5
18 13.08 В 2-4
{6}
н/о н/о +17.8 +12.0 69 +18 +18 1000.5 999.6 +14.1 +21.3
19 13.08 ЮВ 2-3
{4}
н/о н/о +16.8 +11.3 70 +17 +17 1000.4 999.5
20 13.08 СВ 2-4
{6}
н/о н/о +15.2 +10.8 75 +15 +15 1000.6 999.6
21 13.08 С 1-3
{5}
н/о н/о +14.3 +10.7 79 +15 +15 1000.6 999.7
22 13.08 В 3-5
{5}
н/о н/о +13.4 +10.6 83 +12 +12 1000.4 999.5
23 13.08 В 3-4
{7}
н/о н/о +13.0 +10.7 86 +12 +12 1000.5 999.5
00 14.08 В 3-4
{7}
н/о н/о +12.3 +10.4 88 +11 +11 1000.5 999.6
01 14.08 СВ 2-4
{4}
н/о н/о +11.5 +9.9 90 +10 +10 1000.5 999.5
02 14.08 В 5-7
{7}
н/о н/о +11.2 +10.1 93 +8 +8 1000.8 999.8
03 14.08 СВ 3-4
{9}
н/о н/о +11.4 +10.3 93 +9 +9 1000.8 999.9
04 14.08 В 5-7
{7}
н/о н/о +12.0 +10.7 92 +9 +9 1000.9 1000.0
05 14.08 СВ 3-4
{6}
н/о н/о +13.1 +11.3 89 +12 +12 1001.2 1000.2
06 14.08 СЗ 1-1
{9}
н/о н/о +13.6 +11.8 89 +14 +14 1001.3 1000.4 +10.7 +17.8
07 14.08 З 1-2
{2}
н/о н/о +13.6 +11.7 88 +14 +14 1001.6 1000.6
08 14.08 В 2-4
{5}
н/о н/о +13.8 +11.9 88 +13 +13 1001.6 1000.7
09 14.08 СВ 1-2
{4}
н/о н/о +14.0 +12.1 88 +14 +14 1002.1 1001.1
10 14.08 З 1-2
{3}
н/о н/о +13.1 +12.2 94 +13 +13 1002.3 1001.4
11 14.08 ЮВ 1-2
{2}
н/о н/о +13.4 +12.6 95 +13 +13 1002.6 1001.7
12 14.08 ЮЗ 3-4
{5}
н/о н/о +13.0 +12.5 97 +12 +12 1002.9 1002.0 2
13 14.08 ЮЗ 2-3
{3}
н/о н/о +13.2 +12.9 98 +12 +12 1003.0 1002.0
14 14.08 ЮЗ 3-3
{3}
н/о н/о +12.8 +12.3 97 +11 +11 1003.2 1002.2
15 14.08 ЮЗ 2-3
{3}
н/о н/о +12.7 +12.2 97 +12 +12 1003.3 1002.3
16 14.08 ЮЗ 2-3
{3}
н/о н/о +12.8 +12.5 98 +12 +12 1003.4 1002.5
17 14.08 ЮЗ 3-4
{4}
н/о н/о +12.5 +12.2 98 +11 +11 1003.5 1002.5
18 14.08 З 2-3
{4}
н/о н/о +12.4 +12.1 98 +11 +11 1003.6 1002.6 +12.4 +14.1 4
19 14.08 З 2-2
{2}
н/о н/о +12.3 +12.2 99 +11 +11 1003.8 1002.8
20 14.08 З 2-2
{2}
н/о н/о +12.3 +12.2 99 +11 +11 1003.9 1002.9
21 14.08 З 3-3
{3}
н/о н/о +12.2 +12.1 99 +10 +10 1004.0 1003.0
22 14.08 СЗ 1-2
{3}
н/о н/о +11.9 +11.8 99 +12 +12 1004.1 1003.1
23 14.08 З 1-2
{2}
н/о н/о +11.9 +11.8 99 +12 +12 1004.2 1003.2
00 15.08 З 2-3
{3}
н/о н/о +12.0 +11.9 99 +11 +11 1004.3 1003.3 0.6
01 15.08 З 3-3
{3}
н/о н/о +12.1 +12.0 99 +10 +10 1004.3 1003.3
02 15.08 ЮЗ 3-4
{4}
н/о н/о +12.0 +11.9 99 +10 +10 1004.3 1003.3
03 15.08 ЮЗ 3-5
{5}
н/о н/о +12.1 +12.0 99 +10 +10 1004.2 1003.2
04 15.08 ЮЗ 6-7
{8}
н/о н/о +11.9 +11.8 99 +9 +9 1004.4 1003.4
05 15.08 З 4-5
{8}
н/о н/о +11.9 +11.4 97 +10 +10 1004.6 1003.6
06 15.08 З 3-3
{8}
н/о н/о +11.9 +11.3 96 +10 +10 1004.9 1003.9 +11.8 +12.4 2
07 15.08 СЗ 2-3
{3}
н/о н/о +11.7 +11.2 97 +10 +10 1005.1 1004.2
08 15.08 З 1-2
{3}
н/о н/о +11.7 +11.2 97 +11 +11 1005.2 1004.3
09 15.08 СЗ 1-2
{2}
н/о н/о +11.6 +11.1 97 +11 +11 1005.5 1004.5
10 15.08 ЮЗ 2-3
{3}
н/о н/о +11.9 +11.4 97 +11 +11 1005.7 1004.7
11 15.08 З 4-5
{5}
н/о н/о +12.2 +11.4 95 +10 +10 1005.9 1004.9
12 15.08 З 5-7
{7}
н/о н/о +12.5 +11.6 94 +10 +10 1006.2 1005.2 11
13 15.08 З 5-7
{7}
н/о н/о +12.6 +10.8 89 +10 +10 1006.4 1005.5
14 15.08 З 5-6
{7}
н/о н/о +12.8 +10.9 88 +11 +11 1006.7 1005.7
15 15.08 З 4-5
{6}
н/о н/о +12.8 +10.7 87 +11 +11 1006.9 1005.9
16 15.08 З 3-4
{5}
н/о н/о +12.6 +10.7 88 +11 +11 1007.1 1006.2
17 15.08 З 2-2
{4}
н/о н/о +12.6 +10.7 88 +12 +12 1007.2 1006.2
18 15.08 ЮЗ 2-3
{7}
н/о н/о +12.4 +10.8 90 +11 +11 1007.3 1006.3 +11.5 +13.0 10
19 15.08 З 2-2
{3}
н/о н/о +12.2 +10.3 88 +11 +11 1007.2 1006.3
20 15.08 З 2-2
{2}
н/о н/о +12.1 +10.0 87 +11 +11 1007.3 1006.4
21 15.08 штиль 0-1
{2}
н/о н/о +11.9 +10.2 89 +11 +11 1007.3 1006.3
22 15.08 З 2-2
{3}
н/о н/о +12.0 +9.7 86 +11 +11 1007.3 1006.3
23 15.08 ЮЗ 1-1
{2}
н/о н/о +11.7 +9.4 86 +12 +12 1007.1 1006.2
00 16.08 ЮЗ 1-1
{3}
н/о н/о +11.0 +9.4 90 +11 +11 1006.9 1006.0
01 16.08 штиль 0
{1}
н/о н/о +10.5 +9.4 93 +10 +10 1006.9 1005.9
02 16.08 штиль 0
{1}
н/о н/о +10.4 +9.2 92 +10 +10 1006.6 1005.6
03 16.08 СВ 2-2
{2}
н/о н/о +9.8 +8.9 94 +8 +8 1006.5 1005.5
04 16.08 СВ 1-1
{2}
н/о н/о +9.8 +8.9 94 +9 +9 1006.4 1005.5
05 16.08 СВ 1-1
{2}
н/о н/о +11.5 +9.9 90 +11 +11 1006.2 1005.2
06 16.08 В 3-4
{4}
н/о н/о +12.8 +10.7 87 +11 +11 1005.8 1004.8 +9.3 +12.8
07 16.08 В 3-4
{5}
н/о н/о +13.6 +10.2 80 +12 +12 1005.4 1004.4
08 16.08 В 3-5
{5}
н/о н/о +14.0 +8.8 71 +13 +13 1004.9 1003.9
09 16.08 СВ 2-3
{4}
н/о н/о +15.0 +10.0 72 +15 +15 1004.6 1003.6
10 16.08 З 2-2
{4}
н/о н/о +14.2 +9.0 71 +14 +14 1004.3 1003.3
11 16.08 СЗ 2-3
{4}
н/о н/о +14.5 +9.5 72 +14 +14 1004.2 1003.2
12 16.08 СЗ 3-4
{5}
н/о н/о +14.4 +9.6 73 +14 +14 1004.1 1003.2
13 16.08 СЗ 4-4
{4}
н/о н/о +14.9 +9.7 71 +14 +14 1004.2 1003.3
14 16.08 СЗ 2-3
{4}
н/о н/о +15.5 +9.6 68 +15 +15 1004.2 1003.2
15 16.08 СЗ 2-3
{3}
н/о н/о +15.1 +9.7 70 +15 +15 1003.7 1002.8
16 16.08 З 2-3
{3}
н/о н/о +13.7 +10.5 81 +13 +13 1004.1 1003.1
17 16.08 С 1-2
{3}
н/о н/о +13.9 +9.9 77 +14 +14 1004.0 1003.0
18 16.08 Ю 2-3
{4}
н/о н/о +13.7 +10.3 80 +13 +13 1004.3 1003.4 +12.7 +15.5
19 16.08 Ю 2-3
{4}
н/о н/о +12.5 +10.1 85 +12 +12 1004.3 1003.3
20 16.08 ЮВ 3-4
{4}
н/о н/о +12.8 +10.5 86 +11 +11 1004.3 1003.3
21 16.08 ЮВ 5-6
{7}
н/о н/о +12.9 +9.9 82 +11 +11 1004.1 1003.2
22 16.08 Ю 5-6
{8}
н/о н/о +12.0 +10.6 91 +9 +9 1004.3 1003.4
23 16.08 ЮВ 4-5
{7}
н/о н/о +11.9 +10.3 90 +10 +10 1004.2 1003.2
00 17.08 Ю 7-9
{10}
н/о н/о +12.9 +9.9 82 +10 +10 1004.0 1003.1 1
01 17.08 ЮВ 5-7
{10}
н/о н/о +12.6 +10.0 84 +10 +10 1004.0 1003.1
02 17.08 Ю 7-8
{10}
н/о н/о +12.5 +10.1 85 +10 +10 1003.8 1002.9
03 17.08 ЮВ 4-5
{9}
н/о н/о +12.9 +9.9 82 +11 +11 1003.6 1002.6
04 17.08 Ю 6-7
{7}
н/о н/о +12.9 +9.4 79 +10 +10 1003.5 1002.5
05 17.08 Ю 6-7
{7}
н/о н/о +13.3 +9.7 79 +11 +11 1003.4 1002.4
06 17.08 ЮВ 4-5
{10}
н/о н/о +14.5 +9.5 72 +13 +13 1003.3 1002.4 +11.8 +14.6 0.9
07 17.08 ЮВ 3-4
{5}
н/о н/о +14.9 +9.5 70 +14 +14 1003.3 1002.4
08 17.08 ЮВ 4-5
{6}
н/о н/о +15.1 +9.5 69 +14 +14 1003.2 1002.3
09 17.08 ЮВ 3-4
{5}
н/о н/о +15.3 +8.5 64 +15 +15 1002.8 1001.9
10 17.08 В 2-3
{4}
н/о н/о +15.7 +7.2 57 +16 +16 1002.7 1001.7
11 17.08 ЮВ 3-3
{3}
н/о н/о +16.4 +8.6 60 +16 +16 1002.3 1001.3
12 17.08 В 3-4
{6}
н/о н/о +16.5 +8.0 57 +16 +16 1001.8 1000.9
13 17.08 В 3-4
{5}
н/о н/о +17.4 +8.3 55 +17 +17 1001.4 1000.5
14 17.08 В 4-5
{5}
н/о н/о +17.0 +9.2 60 +17 +17 1000.6 999.7
15 17.08 В 4-6
{6}
н/о н/о +17.1 +8.8 58 +17 +17 1000.0 999.0
16 17.08 В 4-6
{6}
н/о н/о +16.7 +8.9 60 +16 +16 999.4 998.4
17 17.08 В 5-7
{8}
н/о н/о +16.6 +8.8 60 +16 +16 998.8 997.9
18 17.08 В 5-7
{8}
н/о н/о +16.2 +9.4 64 +15 +15 998.3 997.4 +13.8 +17.6
19 17.08 В 5-8
{8}
н/о н/о +16.9 +10.1 64 +16 +16 997.7 996.7
20 17.08 В 5-7
{8}
н/о н/о +15.6 +11.2 75 +14 +14 997.5 996.6
21 17.08 В 4-6
{7}
н/о н/о +16.0 +11.4 74 +15 +15 997.2 996.2
22 17.08 В 2-2
{6}
н/о н/о +14.3 +12.5 89 +14 +14 997.5 996.6
23 17.08 В 2-3
{3}
н/о н/о +14.0 +12.9 93 +13 +13 997.4 996.4
00 18.08 В 4-4
{8}
н/о н/о +13.5 +12.9 96 +12 +12 997.3 996.4 5
01 18.08 В 3-3
{4}
н/о н/о +13.8 +13.0 95 +13 +13 997.2 996.3
02 18.08 В 3-3
{4}
н/о н/о +13.8 +12.9 94 +13 +13 997.1 996.2
03 18.08 В 2-3
{4}
н/о н/о +13.8 +12.9 94 +13 +13 996.9 996.0
04 18.08 В 2-2
{3}
н/о н/о +13.8 +12.7 93 +13 +13 997.0 996.0
05 18.08 Ю 3-4
{5}
н/о н/о +14.2 +12.6 90 +13 +13 997.1 996.1
06 18.08 В 4-5
{5}
н/о н/о +14.4 +12.6 89 +13 +13 997.1 996.2 +13.5 +17.0 6
07 18.08 В 5-6
{7}
н/о н/о +15.0 +12.1 83 +14 +14 997.3 996.3
08 18.08 В 4-6
{6}
н/о н/о +16.4 +12.8 79 +16 +16 997.3 996.4
09 18.08 В 3-5
{6}
н/о н/о +16.8 +12.6 76 +17 +17 997.5 996.6
10 18.08 В 4-5
{5}
н/о н/о +17.0 +12.1 73 +17 +17 997.6 996.7
11 18.08 В 3-5
{6}
н/о н/о +18.2 +12.9 71 +19 +19 997.8 996.9
12 18.08 В 4-5
{7}
н/о н/о +19.3 +12.6 65 +21 +21 комфорт 997.8 996.8
13 18.08 ЮВ 3-4
{5}
н/о н/о +18.3 +12.3 68 +19 +19 998.1 997.2
14 18.08 З 6-8
{8}
н/о н/о +14.9 +12.6 86 +13 +13 998.7 997.7
15 18.08 З 4-6
{7}
н/о н/о +13.9 +12.8 93 +12 +12 999.8 998.8
16 18.08 З 2-3
{5}
н/о н/о +13.8 +13.3 97 +13 +13 1000.4 999.5
17 18.08 ЮЗ 2-3
{3}
н/о н/о +13.7 +13.4 98 +13 +13 1000.7 999.8
18 18.08 Ю 3-3
{8}
н/о н/о +13.5 +13.3 99 +12 +12 1001.1 1000.2 +13.5 +20.2 4
19 18.08 Ю 1-2
{4}
н/о н/о +13.4 +13.3 99 +13 +13 1001.1 1000.2
20 18.08 ЮВ 3-4
{4}
н/о н/о +13.2 +13.2 100 +12 +12 1001.3 1000.3
21 18.08 В 2-2
{4}
н/о н/о +13.0 +12.9 99 +12 +12 1001.7 1000.7
22 18.08 В 1-2
{3}
н/о н/о +13.0 +12.7 98 +13 +13 1001.7 1000.8
23 18.08 штиль 0-1
{2}
н/о н/о +12.8 +12.5 98 +12 +12 1001.7 1000.7
00 19.08 С 2-2
{4}
н/о н/о +12.9 +12.6 98 +12 +12 1001.3 1000.4
01 19.08 С 1-2
{2}
н/о н/о +12.6 +12.5 99 +12 +12 1001.0 1000.0
02 19.08 С 1-2
{3}
н/о н/о +11.8 +11.5 98 +12 +12 1000.8 999.9
03 19.08 С 1-2
{4}
н/о н/о +11.8 +11.7 99 +12 +12 1000.5 999.5
05 19.08 ЮВ 1-2
{2}
н/о н/о +12.7 +12.4 98 +13 +13 999.2 998.3
06 19.08 СВ 3-4
{4}
н/о н/о +14.4 +12.8 90 +13 +13 998.9 997.9 +11.4 +14.4 0.2
07 19.08 В 3-4
{4}
н/о н/о +14.6 +12.6 88 +14 +14 998.5 997.5

 

Местоположение метеостанции Бё (Норвегия): широта 68.61 долгота 14.43 высота над уровнем моря 8 м.

В архиве по умолчанию представлена погода в Бё за последнюю неделю. Архивные данные за месяц целиком и за предыдущие месяцы, начиная с января 2011 года, Вы можете получить, выбрав интересующий диапазон дат из раскрывающегося списка и нажав кнопку "Ввод!".


*Определитесь, кто Вы:
робот инопланетянин человек

Внимание! Время в таблицах - всемирное. Для получения местного времени необходимо прибавить поправку, которая равна 1 ч.

Смотрите также архив погоды в соседних городах и на ближайших метеорологических станциях:

Погода в Стокмаркнес аэропорту (Норвегия) (25 км)
Погода в Сволваер аэропорту (Норвегия) (41 км)
Погода в Сортланне (Норвегия) (41 км)
Погода на Маяке Skrova (Норвегия) (52 км)
Погода в Лекнесе (Норвегия) (60 км)
Погода на Маяке Rotvaer (Норвегия) (67 км)
Погода в Харстаде (Норвегия) (87 км)
Погода в Драге (Норвегия) (92 км)
Погода в Аэропорту Харстад/Нарвик (Норвегия) (92 км)
Погода на Аннёйа (Норвегия) (102 км)

Пояснения к столбцам:

Ветер - указаны скорость ветра в м/с - средняя за 10 мин, порывы в срок и между сроками (в фигурных скобках) и направление, откуда дует ветер: С - северный, СВ - северо-восточный, В - восточный, ЮВ - юго-восточный, Ю - южный, ЮЗ - юго-западный, З - западный, СЗ - северо-западный.
Видимость - горизонтальная дальность видимости в метрах или километрах. При видимости от 1 до 10 км при отсутствии осадков обычно наблюдается дымка, при ухудшении видимости до 1 км и менее - туман. В сухую погоду видимость может ухудшаться дымом, пылью или мглою.
Явления - указаны атмосферные явления, наблюдавшиеся в срок или в последний час перед сроком; фигурными скобками обозначены явления, наблюдавшиеся между сроками (за 1-3 часа до срока); квадратными скобками обозначены град или гололедные отложения с указанием их диаметра в мм.
Облачность - указаны через наклонную черту общая и нижняя облачность в баллах и высота нижней границы облаков в метрах; квадратными скобками обозначены формы облаков: Ci - перистые, Cs - перисто-слоистые, Cc - перисто-кучевые, Ac - высококучевые, As - высокослоистые, Sc - слоисто-кучевые, Ns - слоисто-дождевые, Cu - кучевые, Cb - кучево-дождевые. Подробнее классификацию облаков см. в Атласе облаков (PDF).
T - Температура воздуха - температура, измеренная на высоте 2 м над землей.
Td - Температура точки росы - температура, при понижении до которой содержащийся в воздухе водяной пар достигнет насыщения.
f - Относительная влажность воздуха - влажноcть воздуха, измеренная на высоте 2 м над землей.
Te - Эффективная температура - температура, которую ощущает одетый по сезону человек в тени. Характеристика душности погоды. При расчете учитывается влияние влажности воздуха и скорости ветра на теплоощущения человека.
Tes - Эффективная температура на солнце - температура, которую ощущает человек, с поправкой на солнечный нагрев. Характеристика знойности погоды. Зависит от высоты солнца над горизонтом, облачности и скорости ветра. Ночью, в пасмурную погоду, а также при ветре 12 м/с и более поправка равна нулю.
P - Атмосферное давление - приведенное к уровню моря атмосферное давление.
Po - Атмосферное давление - измеренное на уровне метеостанции атмосферное давление.
Tmin - Минимальная температура - минимум температуры воздуха на высоте 2 м над землей.
Tmax - Максимальная температура - максимум температуры воздуха на высоте 2 м над землей.
R - Количество осадков - Количество выпавших осадков за период времени, мм. При наведении курсора мыши на число - период времени, за который выпало указанное количество осадков.
R24 - Количество осадков - Количество выпавших осадков за 24 часа, мм.
S - Снежный покров - Высота снежного покрова, см. При наведении курсора мыши на число - состояние снежного покрова и степень покрытия местности в баллах.